Regional Weather Roundup
Issued by NWS

Home | Current Version | Previous Version | Text Only | Print | Product List | Glossary On
Versions: 1 2 3 4 5 6 7 8 9 10 11 12 13 14 15 16 17 18 19 20 21 22 23 24 25 26 27
000
ASUS45 KSLC 160310
RWRUT

UTAH REGIONAL WEATHER ROUNDUP
NATIONAL WEATHER SERVICE SALT LAKE CITY UT
800 PM MST FRI DEC 15 2017

UTZ001>011-023>025-160400-

NORTHERN UTAH

CITY           SKY/WX    TMP DP  RH WIND       PRES   REMARKS
BRIGHAM CITY   CLOUDY    32  26  77 CALM      30.03F
HILL AFB       CLOUDY    32  20  62 CALM      30.01F
LOGAN          CLOUDY    29  23  78 CALM      30.02F
OGDEN          CLOUDY    30  25  81 S6        30.01F WCI  24
SALT LAKE CITY CLOUDY    32  27  81 S3        30.03F
TOOELE VALLEY  CLOUDY    27  25  93 S6        30.04F WCI  20
WENDOVER       CLOUDY    27  21  78 NE5       30.03F WCI  22
HEBER CITY       N/A     23  12  63 CALM      30.00F
WEST JORDAN    CLOUDY    29  26  87 SE3       30.05F

$$

UTZ011>015-024>027-160400-

CENTRAL/NORTHEAST UTAH

CITY           SKY/WX    TMP DP  RH WIND       PRES   REMARKS
PROVO AIRPORT  PTCLDY    25  18  74 CALM      30.04F
MOAB/CANYONLAN PTCLDY    29  10  45 CALM      30.08F
DELTA          MOCLDY    28  18  64 E6        30.01F WCI  22
PRICE          CLEAR     26  12  55 N9        30.08F WCI  17
RICHFIELD      CLEAR     21  10  63 CALM      30.03F
ROOSEVELT      CLOUDY    21  12  68 CALM      30.09S
VERNAL         CLOUDY    26  14  60 NW5       30.06F WCI  20

$$

UTZ013>016-019>022-027-160400-

SOUTHERN UTAH

CITY           SKY/WX    TMP DP  RH WIND       PRES   REMARKS
BRYCE CANYON   CLEAR     16  -3  43 SW7       30.12F WCI   6
CEDAR CITY     CLEAR     40  -1  18 S9        30.04F WCI  34
MILFORD        PTCLDY    42  11  28 SW18      29.99F
ST GEORGE      PTCLDY    39  13  34 SE10      30.06F WCI  32
HANKSVILLE     PTCLDY    32  12  43 CALM      30.12S
KANAB          CLEAR     28  -6  22 NE6       30.12F WCI  22
BLANDING         N/A     26   4  39 N8        30.18F WCI  17

$$

REGIONAL REPORTS     COLORADO/ARIZONA

CITY           SKY/WX    TMP DP  RH WIND       PRES   REMARKS
CRAIG, CO      CLOUDY    17  10  74 CALM      30.06F
GRAND JUNCTION CLOUDY    27   7  42 VRB6      30.11F WCI  20
RIFLE, CO      CLOUDY    25   6  44 SE6       30.12F WCI  18
MONTROSE, CO   CLOUDY    22   8  55 SE7       30.13F WCI  13
CORTEZ, CO     CLOUDY    22   3  44 NE9       30.15F WCI  12
COLORADO CITY    N/A     28  -4  24 SE5       30.11S WCI  23
PAGE, AZ       CLEAR     40  11  30 CALM      30.08F
GRAND CANYON   PTCLDY    23 -14  19 NE3       30.13F
KINGMAN, AZ    CLEAR     44   0  16 S10       30.06F
FLAGSTAFF, AZ  CLEAR     26  -7  23 CALM      30.15F

$$

REGIONAL REPORTS    NEVADA/IDAHO/WYOMING

CITY           SKY/WX    TMP DP  RH WIND       PRES   REMARKS
LAS VEGAS, NV  PTCLDY    53  17  24 SW3       30.01F
ELY, NY        CLOUDY    30   2  30 S7        30.03F WCI  23
ELKO, NV       CLOUDY    30  24  78 SW3       30.02S
POCATELLO, ID  CLOUDY    23  21  92 CALM      30.03F
BURLEY, ID     CLOUDY    31  24  75 CALM      30.01F
FORT BRIDGER,    N/A     37   6  26 W12       30.02S WCI  29
EVANSTON, WY   CLOUDY    33   7  33 SW7       30.00F WCI  27
ROCK SPRINGS,  CLOUDY    34   5  29 SW16      29.98F WCI  24

$$




USA.gov is the U.S. government's official web portal to all federal, state and local government web resources and services.